Flag Weather past 2 weeks in Unalaska, Alaska, U.S.A.

Now
43 °F

Light rain. Overcast.


Feels Like: 34 °F
Forecast: 41 / 44 °F
Wind: 22 mph from South

Location: Dutch Harbor

Current Time: Nov 26, 2014 at 5:02:00 AM

Latest Report: Nov 26, 2014 at 3:56 AM


Visibility: 10 mi

Pressure: 29.93 "Hg

Humidity: 82%

Dew point: 38 °F

Location of UnalaskaLocation

Historic Weather in Unalaska — Graph

°F

Unalaska temperature yesterday

Maximum temperature yesterday: 45 °F (at 6:56 AM)
Minimum temperature yesterday: 42 °F (at 6:56 PM)
Average temperature yesterday: 44 °F

Past Weeks' High & Low Weather Summary

 TemperatureHumidityPressure
High47 °F (Nov 17, 4:56 AM)93% (Nov 16, 5:56 AM)30.04 "Hg (Nov 16, 5:56 AM)
Low35 °F (Nov 12, 7:56 AM)60% (Nov 15, 1:56 PM)28.71 "Hg (Nov 18, 12:56 AM)
Average41 °F77%29.29 "Hg
* Reported Nov 11 3:56 AM — Nov 26 3:56 AM, Unalaska, Weather by CustomWeather, © 2014

Note: Actual official high and low records may vary slightly from our data, if they occured in-between our weather recording intervals... More about our weather records

Advertising

Unalaska weather history for previous 24 hours

 ConditionsComfort  
Time TempWeatherWind HumidityBarometerVisibility
3:56 AM
Nov 26
43 °FLight rain. Overcast.22 mph82%29.93 "Hg10 mi
2:56 AM43 °FLight rain. Overcast.21 mph82%29.94 "Hg8 mi
1:56 AM43 °FLight rain. Mostly cloudy.26 mph82%29.93 "Hg5 mi
12:56 AM42 °FLight rain. Mostly cloudy.18 mph82%29.93 "Hg6 mi
11:56 PM
Nov 25
42 °FLight rain. Overcast.22 mph79%29.94 "Hg7 mi
10:56 PM43 °FLight rain. Overcast.14 mph74%29.96 "Hg10 mi
9:56 PM42 °FLight rain. Overcast.23 mph76%29.97 "Hg10 mi
8:56 PM43 °FMostly cloudy.21 mph74%29.98 "Hg10 mi
7:56 PM42 °FMostly cloudy.23 mph79%29.99 "Hg10 mi
6:56 PM42 °FPartly cloudy.29 mph79%29.97 "Hg10 mi
5:56 PM44 °FOvercast.24 mph71%29.99 "Hg10 mi
4:56 PM44 °FOvercast.23 mph71%29.99 "Hg10 mi
3:56 PM44 °FOvercast.21 mph73%29.99 "Hg10 mi
2:56 PM44 °FOvercast.18 mph73%30.01 "Hg10 mi
1:56 PM44 °FOvercast.13 mph73%30.02 "Hg10 mi
12:56 PM44 °FOvercast.15 mph73%30.04 "Hg10 mi
11:56 AM45 °FOvercast.14 mph65%30.04 "Hg10 mi
10:56 AM44 °FMore clouds than sun.14 mph71%30.04 "Hg10 mi
9:56 AM44 °FOvercast.17 mph71%30.01 "Hg10 mi
8:56 AM45 °FOvercast.3 mph68%30.00 "Hg10 mi
7:56 AM45 °FOvercast.7 mph68%29.99 "Hg10 mi
6:56 AM45 °FOvercast.10 mph68%29.98 "Hg10 mi
5:56 AM44 °FMostly cloudy.8 mph73%29.98 "Hg10 mi
Weather by CustomWeather, © 2014

See weather overviewHow to use our weather pages